RAM714T GMMN-LGAV

Flight info

Callsign RAM714T
Flight time N/A
Altitude 37000
Route SADIC UR975 FES UA411 ALR/N0446F390 UA411 MORJA UM978 SONAK/N0447F380 DCT PAN DCT LONDI DCT COBBA DCT SOPOM DCT ROXOM DCT RUTOM/N0453F390 UN604 RILIN
Aircraft B738/M-SDE2E3FGHIRWXY/LB1

Departure

Time N/A
Airport Mohammed V International Airport (GMMN)

Arrival

Time 2026-05-03 22:08
Airport Athens Eleftherios Venizelos International Airport (LGAV)
Time Latitude Longitude Altitude Speed Heading
2026-05-03 20:15 36.83434 8.72637 37069 ft 509 kts 89°
2026-05-03 20:15 36.83514 8.81403 37055 ft 508 kts 89°
2026-05-03 20:16 36.83584 8.90203 37054 ft 506 kts 89°
2026-05-03 20:16 36.83638 8.98977 37058 ft 505 kts 89°
2026-05-03 20:17 36.83683 9.07737 37063 ft 503 kts 89°
2026-05-03 20:17 36.83722 9.16466 37072 ft 502 kts 89°
2026-05-03 20:18 36.83754 9.25173 37088 ft 502 kts 89°
2026-05-03 20:18 36.83781 9.33884 37094 ft 502 kts 89°
2026-05-03 20:19 36.83802 9.42591 37099 ft 502 kts 89°
2026-05-03 20:19 36.83929 9.51307 37093 ft 502 kts 88°
2026-05-03 20:20 36.84118 9.60033 37099 ft 503 kts 88°
2026-05-03 20:20 36.84289 9.68760 37124 ft 503 kts 89°
2026-05-03 20:21 36.84438 9.77501 37094 ft 502 kts 89°
2026-05-03 20:21 36.84576 9.86190 37097 ft 499 kts 89°
2026-05-03 20:22 36.84708 9.94832 37095 ft 497 kts 89°
2026-05-03 20:22 36.84834 10.03430 37100 ft 494 kts 89°
2026-05-03 20:23 36.84954 10.11983 37096 ft 492 kts 89°
2026-05-03 20:23 36.85065 10.20509 37093 ft 490 kts 90°
2026-05-03 20:24 36.84228 10.28911 37117 ft 487 kts 104°
2026-05-03 20:24 36.82685 10.37098 37118 ft 488 kts 104°
2026-05-03 20:25 36.81159 10.45355 37135 ft 489 kts 104°
2026-05-03 20:25 36.79677 10.53661 37133 ft 491 kts 104°
2026-05-03 20:26 36.78193 10.61996 37137 ft 493 kts 104°
2026-05-03 20:26 36.76683 10.70376 37137 ft 495 kts 104°
2026-05-03 20:27 36.75158 10.78755 37139 ft 496 kts 104°
2026-05-03 20:27 36.73625 10.87152 37147 ft 497 kts 104°
2026-05-03 20:28 36.72088 10.95548 37142 ft 497 kts 104°
2026-05-03 20:28 36.70544 11.03948 37157 ft 497 kts 104°
2026-05-03 20:29 36.68995 11.12358 37161 ft 498 kts 104°
2026-05-03 20:29 36.67443 11.20771 37158 ft 499 kts 104°
2026-05-03 20:30 36.65883 11.29193 37157 ft 499 kts 104°
2026-05-03 20:30 36.64318 11.37607 37162 ft 499 kts 104°
2026-05-03 20:31 36.62930 11.46072 37150 ft 500 kts 93°
2026-05-03 20:31 36.63069 11.50381 37180 ft 497 kts 79°
2026-05-03 20:31 36.63878 11.54548 37158 ft 494 kts 67°
2026-05-03 20:32 36.66929 11.62126 37193 ft 490 kts 58°
2026-05-03 20:32 36.70174 11.69614 37176 ft 490 kts 59°
2026-05-03 20:33 36.73337 11.77132 37176 ft 489 kts 59°
2026-05-03 20:33 36.76439 11.84614 37177 ft 488 kts 59°
2026-05-03 20:34 36.79554 11.92135 37178 ft 486 kts 59°
2026-05-03 20:34 36.82675 11.99609 37180 ft 485 kts 58°
2026-05-03 20:35 36.85928 12.06976 37189 ft 483 kts 57°
2026-05-03 20:35 36.89196 12.14298 37187 ft 482 kts 57°
2026-05-03 20:36 36.92437 12.21628 37180 ft 481 kts 58°
2026-05-03 20:36 36.95656 12.28961 37182 ft 480 kts 58°
2026-05-03 20:37 36.98854 12.36274 37187 ft 479 kts 58°
2026-05-03 20:37 37.02044 12.43582 37195 ft 478 kts 57°
2026-05-03 20:38 37.05225 12.50882 37204 ft 477 kts 57°
2026-05-03 20:38 37.08399 12.58183 37183 ft 477 kts 58°
2026-05-03 20:39 37.11560 12.65471 37196 ft 476 kts 58°
2026-05-03 20:39 37.14716 12.72764 37198 ft 475 kts 58°
2026-05-03 20:40 37.17862 12.80050 37212 ft 475 kts 57°
2026-05-03 20:40 37.21001 12.87337 37194 ft 474 kts 58°
2026-05-03 20:41 37.24114 12.94578 37200 ft 474 kts 58°
2026-05-03 20:41 37.27257 13.01908 37207 ft 474 kts 58°
2026-05-03 20:42 37.30357 13.09153 37200 ft 473 kts 58°
2026-05-03 20:42 37.33467 13.16437 37213 ft 473 kts 57°
2026-05-03 20:43 37.36263 13.23958 37218 ft 476 kts 65°
2026-05-03 20:43 37.38581 13.31768 37211 ft 477 kts 66°
2026-05-03 20:44 37.40866 13.39601 37212 ft 477 kts 66°
2026-05-03 20:44 37.43197 13.47422 37229 ft 477 kts 65°
2026-05-03 20:45 37.45551 13.55237 37222 ft 478 kts 64°
2026-05-03 20:45 37.47511 13.61739 37221 ft 477 kts 64°
2026-05-03 20:46 37.49862 13.69564 37213 ft 477 kts 65°
2026-05-03 20:46 37.52201 13.77378 37222 ft 476 kts 65°
2026-05-03 20:47 37.54530 13.85184 37216 ft 476 kts 65°
2026-05-03 20:47 37.56849 13.92983 37227 ft 475 kts 64°
2026-05-03 20:48 37.59164 14.00783 37235 ft 475 kts 64°
2026-05-03 20:48 37.61474 14.08589 37212 ft 475 kts 64°
2026-05-03 20:49 37.63761 14.16343 37215 ft 474 kts 64°
2026-05-03 20:49 37.66070 14.24194 37220 ft 474 kts 64°
2026-05-03 20:50 37.68344 14.31945 37204 ft 473 kts 64°
2026-05-03 20:50 37.70619 14.39726 37196 ft 472 kts 64°
2026-05-03 20:51 37.72888 14.47505 37193 ft 472 kts 64°
2026-05-03 20:51 37.75146 14.55270 37218 ft 470 kts 64°
2026-05-03 20:52 37.77395 14.63027 37194 ft 469 kts 64°
2026-05-03 20:52 37.79638 14.70781 37189 ft 468 kts 64°
2026-05-03 20:53 37.81735 14.78607 37179 ft 474 kts 70°
2026-05-03 20:53 37.83109 14.86773 37197 ft 475 kts 73°
2026-05-03 20:54 37.84378 14.94988 37205 ft 476 kts 72°
2026-05-03 20:54 37.86386 15.07310 37182 ft 476 kts 72°
2026-05-03 20:55 37.87742 15.15495 37187 ft 475 kts 72°
2026-05-03 20:55 37.89087 15.23669 37189 ft 474 kts 72°
2026-05-03 20:56 37.90426 15.31848 37205 ft 473 kts 71°
2026-05-03 20:56 37.91836 15.39912 37203 ft 469 kts 68°
2026-05-03 20:57 37.93591 15.47850 37195 ft 467 kts 66°
2026-05-03 20:57 37.95408 15.55745 37199 ft 467 kts 67°
2026-05-03 20:58 37.97189 15.63669 37186 ft 467 kts 67°
2026-05-03 20:58 37.98941 15.71620 37192 ft 469 kts 67°
2026-05-03 20:59 38.00681 15.79583 37195 ft 469 kts 67°
2026-05-03 20:59 38.02419 15.87567 37180 ft 470 kts 67°
2026-05-03 21:00 38.03860 15.94208 37218 ft 470 kts 67°
2026-05-03 21:00 38.05891 16.03592 37205 ft 473 kts 67°
2026-05-03 21:01 38.07628 16.11648 37189 ft 473 kts 67°
2026-05-03 21:01 38.09358 16.19697 37186 ft 472 kts 67°
2026-05-03 21:02 38.11077 16.27730 37184 ft 471 kts 67°
2026-05-03 21:02 38.12788 16.35756 37221 ft 470 kts 67°
2026-05-03 21:03 38.14494 16.43782 37198 ft 470 kts 67°
2026-05-03 21:03 38.16183 16.51756 37172 ft 470 kts 67°
2026-05-03 21:04 38.17875 16.59779 37178 ft 470 kts 67°
2026-05-03 21:04 38.19561 16.67801 37167 ft 470 kts 67°
2026-05-03 21:05 38.21244 16.75839 37180 ft 470 kts 67°
2026-05-03 21:05 38.22920 16.83873 37176 ft 470 kts 67°
2026-05-03 21:06 38.24591 16.91914 37169 ft 470 kts 67°
2026-05-03 21:06 38.26255 16.99948 37169 ft 470 kts 67°
2026-05-03 21:07 38.27914 17.07989 37187 ft 470 kts 68°
2026-05-03 21:07 38.29192 17.16212 37175 ft 475 kts 73°
2026-05-03 21:08 38.30228 17.24531 37184 ft 475 kts 73°
2026-05-03 21:08 38.31261 17.32843 37164 ft 474 kts 73°
2026-05-03 21:09 38.32320 17.41120 37194 ft 473 kts 73°
2026-05-03 21:09 38.32849 17.45208 37012 ft 474 kts 73°
2026-05-03 21:09 38.33383 17.49343 36734 ft 471 kts 73°
2026-05-03 21:10 38.33914 17.53459 36485 ft 470 kts 73°
2026-05-03 21:10 38.34442 17.57569 36236 ft 471 kts 73°
2026-05-03 21:10 38.34971 17.61685 35987 ft 472 kts 73°
2026-05-03 21:10 38.35501 17.65821 35741 ft 473 kts 73°
2026-05-03 21:11 38.36030 17.69967 35497 ft 474 kts 73°
2026-05-03 21:11 38.36555 17.74105 35255 ft 474 kts 73°
2026-05-03 21:11 38.37080 17.78254 35043 ft 475 kts 73°
2026-05-03 21:11 38.37604 17.82414 34803 ft 475 kts 73°
2026-05-03 21:12 38.38127 17.86571 34568 ft 475 kts 72°
2026-05-03 21:12 38.38648 17.90731 34330 ft 475 kts 72°
2026-05-03 21:12 38.39168 17.94891 34091 ft 475 kts 72°
2026-05-03 21:12 38.39688 17.99058 33817 ft 475 kts 72°
2026-05-03 21:13 38.40205 18.03220 33572 ft 475 kts 72°
2026-05-03 21:13 38.40720 18.07374 33301 ft 474 kts 72°
2026-05-03 21:13 38.41233 18.11537 33037 ft 474 kts 73°
2026-05-03 21:13 38.41744 18.15683 32775 ft 473 kts 73°
2026-05-03 21:14 38.42252 18.19824 32514 ft 473 kts 73°
2026-05-03 21:14 38.42759 18.23958 32262 ft 472 kts 73°
2026-05-03 21:14 38.43264 18.28097 32008 ft 472 kts 73°
2026-05-03 21:14 38.43768 18.32234 31758 ft 472 kts 73°
2026-05-03 21:15 38.44270 18.36369 31508 ft 472 kts 73°
2026-05-03 21:15 38.44772 18.40510 31264 ft 473 kts 73°
2026-05-03 21:15 38.45272 18.44656 31048 ft 473 kts 73°
2026-05-03 21:15 38.45771 18.48803 30808 ft 473 kts 73°
2026-05-03 21:16 38.46268 18.52946 30561 ft 473 kts 73°
2026-05-03 21:16 38.46762 18.57090 30324 ft 472 kts 73°
2026-05-03 21:16 38.47255 18.61234 30057 ft 470 kts 73°
2026-05-03 21:16 38.47743 18.65347 29773 ft 468 kts 73°
2026-05-03 21:17 38.48227 18.69447 29492 ft 466 kts 73°
2026-05-03 21:17 38.48546 18.72150 29301 ft 464 kts 73°
2026-05-03 21:17 38.49180 18.77536 28941 ft 460 kts 73°
2026-05-03 21:17 38.49653 18.81562 28706 ft 458 kts 74°
2026-05-03 21:18 38.50122 18.85573 28437 ft 456 kts 74°
2026-05-03 21:18 38.50589 18.89561 28172 ft 453 kts 74°
2026-05-03 21:18 38.51052 18.93541 27905 ft 451 kts 74°
2026-05-03 21:18 38.51481 18.97504 27635 ft 452 kts 78°
2026-05-03 21:19 38.51528 19.01546 27372 ft 459 kts 87°
2026-05-03 21:19 38.51063 19.05603 27121 ft 464 kts 95°
2026-05-03 21:19 38.50412 19.09628 26871 ft 462 kts 96°
2026-05-03 21:19 38.49735 19.13642 26647 ft 461 kts 96°
2026-05-03 21:20 38.49062 19.17634 26396 ft 459 kts 96°
2026-05-03 21:20 38.48402 19.21606 26147 ft 457 kts 96°
2026-05-03 21:20 38.47756 19.25561 25900 ft 454 kts 95°
2026-05-03 21:20 38.47120 19.29503 25654 ft 452 kts 95°
2026-05-03 21:21 38.46490 19.33428 25411 ft 450 kts 95°
2026-05-03 21:21 38.45866 19.37329 25171 ft 448 kts 95°
2026-05-03 21:21 38.45242 19.41226 24932 ft 446 kts 95°
2026-05-03 21:21 38.44622 19.45088 24695 ft 444 kts 95°
2026-05-03 21:22 38.44001 19.48942 24495 ft 441 kts 95°
2026-05-03 21:22 38.43385 19.52759 24267 ft 438 kts 95°
2026-05-03 21:22 38.42770 19.56557 24037 ft 436 kts 95°
2026-05-03 21:22 38.42158 19.60330 23810 ft 433 kts 95°
2026-05-03 21:23 38.41549 19.64076 23541 ft 431 kts 95°
2026-05-03 21:23 38.40949 19.67758 23270 ft 429 kts 95°
2026-05-03 21:23 38.40344 19.71468 22998 ft 427 kts 95°
2026-05-03 21:23 38.39739 19.75163 22725 ft 425 kts 95°
2026-05-03 21:24 38.39136 19.78843 22451 ft 423 kts 95°
2026-05-03 21:24 38.38533 19.82515 22241 ft 422 kts 95°
2026-05-03 21:24 38.37932 19.86167 21983 ft 421 kts 95°
2026-05-03 21:24 38.37331 19.89818 21724 ft 420 kts 95°
2026-05-03 21:25 38.36729 19.93459 21469 ft 419 kts 95°
2026-05-03 21:25 38.36128 19.97092 21215 ft 418 kts 95°
2026-05-03 21:25 38.35526 20.00716 20961 ft 417 kts 95°
2026-05-03 21:25 38.34926 20.04328 20708 ft 416 kts 95°
2026-05-03 21:26 38.34326 20.07925 20457 ft 414 kts 95°
2026-05-03 21:26 38.33729 20.11500 20210 ft 412 kts 95°
2026-05-03 21:26 38.33133 20.15067 19998 ft 411 kts 95°
2026-05-03 21:26 38.32739 20.17420 19837 ft 410 kts 95°
2026-05-03 21:27 38.32145 20.20965 19597 ft 408 kts 95°
2026-05-03 21:27 38.31551 20.24495 19347 ft 407 kts 95°
2026-05-03 21:27 38.30991 20.28019 19117 ft 404 kts 93°
2026-05-03 21:27 38.30524 20.31536 18878 ft 401 kts 92°
2026-05-03 21:28 38.30094 20.35039 18646 ft 399 kts 91°
2026-05-03 21:28 38.29675 20.38516 18402 ft 396 kts 91°
2026-05-03 21:28 38.29254 20.41962 18131 ft 393 kts 92°
2026-05-03 21:28 38.28828 20.45389 17860 ft 391 kts 92°
2026-05-03 21:29 38.28398 20.48808 17651 ft 391 kts 92°
2026-05-03 21:29 38.27962 20.52224 17372 ft 390 kts 92°
2026-05-03 21:29 38.27526 20.55624 17113 ft 389 kts 93°
2026-05-03 21:29 38.27089 20.59013 16850 ft 388 kts 93°
2026-05-03 21:30 38.26651 20.62400 16591 ft 387 kts 93°
2026-05-03 21:30 38.26211 20.65778 16330 ft 386 kts 93°
2026-05-03 21:30 38.25773 20.69142 16084 ft 385 kts 94°
2026-05-03 21:30 38.25334 20.72496 15821 ft 383 kts 94°
2026-05-03 21:31 38.24896 20.75831 15577 ft 381 kts 94°
2026-05-03 21:31 38.24459 20.79152 15323 ft 380 kts 94°
2026-05-03 21:31 38.24025 20.82453 15094 ft 378 kts 95°
2026-05-03 21:31 38.23590 20.85751 14848 ft 377 kts 95°
2026-05-03 21:32 38.23154 20.89049 14609 ft 377 kts 95°
2026-05-03 21:32 38.22726 20.92286 14369 ft 376 kts 95°
2026-05-03 21:32 38.22291 20.95560 14127 ft 375 kts 95°
2026-05-03 21:32 38.21857 20.98828 13878 ft 374 kts 96°
2026-05-03 21:33 38.21421 21.02092 13613 ft 373 kts 96°
2026-05-03 21:33 38.20988 21.05331 13343 ft 371 kts 96°
2026-05-03 21:33 38.20555 21.08555 13075 ft 369 kts 96°
2026-05-03 21:33 38.20124 21.11767 12809 ft 366 kts 96°
2026-05-03 21:34 38.19696 21.14946 12561 ft 364 kts 96°
2026-05-03 21:34 38.19271 21.18099 12304 ft 361 kts 96°
2026-05-03 21:34 38.18847 21.21234 12044 ft 358 kts 96°
2026-05-03 21:34 38.18426 21.24343 11786 ft 355 kts 96°
2026-05-03 21:35 38.18007 21.27434 11530 ft 353 kts 96°
2026-05-03 21:35 38.17591 21.30505 11276 ft 351 kts 96°
2026-05-03 21:35 38.17177 21.33545 11028 ft 349 kts 96°
2026-05-03 21:35 38.16765 21.36573 10778 ft 347 kts 96°
2026-05-03 21:36 38.16352 21.39580 10533 ft 344 kts 96°
2026-05-03 21:36 38.15942 21.42564 10306 ft 342 kts 95°
2026-05-03 21:36 38.15525 21.45489 10085 ft 340 kts 96°
2026-05-03 21:36 38.15074 21.48476 10021 ft 340 kts 97°
2026-05-03 21:37 38.14632 21.51351 9995 ft 331 kts 97°
2026-05-03 21:37 38.14196 21.54164 9982 ft 317 kts 96°
2026-05-03 21:37 38.13779 21.56855 10014 ft 303 kts 96°
2026-05-03 21:37 38.13383 21.59420 10010 ft 290 kts 96°
2026-05-03 21:38 38.13003 21.61885 10015 ft 280 kts 96°
2026-05-03 21:38 38.12630 21.64342 10043 ft 293 kts 96°
2026-05-03 21:38 38.12236 21.66973 10044 ft 307 kts 96°
2026-05-03 21:38 38.11834 21.69597 10027 ft 299 kts 96°
2026-05-03 21:39 38.11440 21.72137 10013 ft 287 kts 96°
2026-05-03 21:39 38.11058 21.74609 9796 ft 285 kts 96°
2026-05-03 21:39 38.10678 21.77071 9526 ft 283 kts 96°
2026-05-03 21:39 38.10303 21.79506 9272 ft 280 kts 96°
2026-05-03 21:40 38.09929 21.81926 9024 ft 278 kts 96°
2026-05-03 21:40 38.09558 21.84326 8752 ft 275 kts 96°
2026-05-03 21:40 38.09191 21.86702 8509 ft 274 kts 96°
2026-05-03 21:40 38.08824 21.89072 8249 ft 273 kts 96°
2026-05-03 21:41 38.08460 21.91429 7998 ft 271 kts 96°
2026-05-03 21:41 38.08094 21.93780 7756 ft 271 kts 97°
2026-05-03 21:41 38.07730 21.96119 7506 ft 269 kts 97°
2026-05-03 21:41 38.07368 21.98450 7251 ft 268 kts 97°
2026-05-03 21:42 38.07006 22.00767 7099 ft 267 kts 97°
2026-05-03 21:42 38.06642 22.03088 7070 ft 269 kts 97°
2026-05-03 21:42 38.06284 22.05375 7065 ft 266 kts 97°
2026-05-03 21:42 38.05924 22.07675 7048 ft 265 kts 97°
2026-05-03 21:43 38.05549 22.09979 7068 ft 268 kts 97°
2026-05-03 21:43 38.05183 22.12293 7029 ft 265 kts 97°
2026-05-03 21:43 38.04826 22.14563 7091 ft 263 kts 97°
2026-05-03 21:43 38.04467 22.16853 7046 ft 265 kts 97°
2026-05-03 21:44 38.04105 22.19136 7008 ft 261 kts 97°
2026-05-03 21:44 38.03753 22.21396 7060 ft 265 kts 97°
2026-05-03 21:44 38.03393 22.23715 7081 ft 270 kts 97°
2026-05-03 21:44 38.03023 22.26056 7025 ft 269 kts 97°
2026-05-03 21:45 38.02658 22.28346 7070 ft 263 kts 97°
2026-05-03 21:45 38.02294 22.30628 7052 ft 265 kts 98°
2026-05-03 21:45 38.01929 22.32918 7041 ft 264 kts 97°
2026-05-03 21:45 38.01567 22.35205 7066 ft 265 kts 97°
2026-05-03 21:46 38.01201 22.37500 7030 ft 264 kts 98°
2026-05-03 21:46 38.00838 22.39771 7032 ft 261 kts 98°
2026-05-03 21:46 38.00477 22.42017 7039 ft 260 kts 97°
2026-05-03 21:46 38.00122 22.44230 7041 ft 261 kts 97°
2026-05-03 21:47 37.99753 22.46540 7069 ft 267 kts 98°
2026-05-03 21:47 37.99382 22.48850 7040 ft 266 kts 98°
2026-05-03 21:47 37.99018 22.51111 7047 ft 265 kts 97°
2026-05-03 21:47 37.98649 22.53402 7047 ft 266 kts 98°
2026-05-03 21:48 37.98277 22.55706 7037 ft 267 kts 98°
2026-05-03 21:48 37.97906 22.58012 7025 ft 267 kts 98°
2026-05-03 21:48 37.97535 22.60313 7027 ft 266 kts 98°
2026-05-03 21:48 37.97163 22.62611 7029 ft 266 kts 98°
2026-05-03 21:49 37.96790 22.64906 7031 ft 265 kts 98°
2026-05-03 21:49 37.96423 22.67197 7018 ft 264 kts 97°
2026-05-03 21:49 37.96118 22.69476 7042 ft 262 kts 95°
2026-05-03 21:49 37.95833 22.71766 7024 ft 263 kts 95°
2026-05-03 21:50 37.95547 22.74053 7019 ft 263 kts 95°
2026-05-03 21:50 37.95258 22.76341 7025 ft 263 kts 95°
2026-05-03 21:50 37.94967 22.78632 7043 ft 264 kts 95°
2026-05-03 21:50 37.94674 22.80928 7036 ft 265 kts 95°
2026-05-03 21:51 37.94378 22.83240 7035 ft 266 kts 95°
2026-05-03 21:51 37.94081 22.85557 7032 ft 267 kts 95°
2026-05-03 21:51 37.93780 22.87887 7025 ft 268 kts 95°
2026-05-03 21:51 37.93479 22.90213 7023 ft 268 kts 95°
2026-05-03 21:52 37.93177 22.92545 7028 ft 268 kts 95°
2026-05-03 21:52 37.92741 22.94852 6981 ft 271 kts 105°
2026-05-03 21:52 37.92032 22.97063 6924 ft 271 kts 109°
2026-05-03 21:52 37.91271 22.99241 6867 ft 271 kts 110°
2026-05-03 21:53 37.90507 23.01420 6789 ft 270 kts 109°
2026-05-03 21:53 37.89756 23.03593 6720 ft 269 kts 109°
2026-05-03 21:53 37.89012 23.05769 6653 ft 268 kts 109°
2026-05-03 21:53 37.88278 23.07937 6596 ft 267 kts 109°
2026-05-03 21:54 37.87549 23.10098 6535 ft 267 kts 108°
2026-05-03 21:54 37.86823 23.12260 6466 ft 266 kts 108°
2026-05-03 21:54 37.86100 23.14419 6395 ft 267 kts 108°
2026-05-03 21:54 37.85384 23.16557 6323 ft 266 kts 108°
2026-05-03 21:55 37.84662 23.18714 6258 ft 266 kts 108°
2026-05-03 21:55 37.83941 23.20868 6189 ft 266 kts 108°
2026-05-03 21:55 37.83217 23.23028 6080 ft 268 kts 108°
2026-05-03 21:55 37.82491 23.25191 6020 ft 266 kts 108°
2026-05-03 21:56 37.81769 23.27339 6017 ft 264 kts 108°
2026-05-03 21:56 37.81052 23.29469 6011 ft 263 kts 108°
2026-05-03 21:56 37.80339 23.31588 6001 ft 258 kts 108°
2026-05-03 21:56 37.79651 23.33629 5982 ft 246 kts 107°
2026-05-03 21:57 37.78989 23.35597 5647 ft 249 kts 107°
2026-05-03 21:57 37.78309 23.37622 5419 ft 248 kts 107°
2026-05-03 21:57 37.77629 23.39637 5266 ft 251 kts 108°
2026-05-03 21:57 37.76930 23.41717 5150 ft 261 kts 108°
2026-05-03 21:58 37.76404 23.43900 5020 ft 259 kts 93°
2026-05-03 21:58 37.76227 23.46162 4888 ft 259 kts 90°
2026-05-03 21:58 37.76069 23.48411 4744 ft 255 kts 90°
2026-05-03 21:58 37.75904 23.50633 4615 ft 252 kts 91°
2026-05-03 21:59 37.75736 23.52796 4485 ft 248 kts 90°
2026-05-03 21:59 37.75564 23.54910 4426 ft 235 kts 91°
2026-05-03 21:59 37.75396 23.56903 4302 ft 222 kts 90°
2026-05-03 21:59 37.75239 23.58793 4192 ft 210 kts 90°
2026-05-03 22:00 37.75089 23.60578 4099 ft 199 kts 89°
2026-05-03 22:00 37.74947 23.62275 3985 ft 191 kts 89°
2026-05-03 22:00 37.74808 23.63925 3891 ft 188 kts 89°
2026-05-03 22:00 37.74669 23.65577 3796 ft 190 kts 89°
2026-05-03 22:01 37.74527 23.67251 3717 ft 193 kts 90°
2026-05-03 22:01 37.74382 23.68940 3615 ft 193 kts 90°
2026-05-03 22:01 37.74237 23.70621 3516 ft 192 kts 90°
2026-05-03 22:01 37.74178 23.72291 3409 ft 188 kts 78°
2026-05-03 22:02 37.74460 23.73862 3321 ft 180 kts 62°
2026-05-03 22:02 37.75062 23.75216 3247 ft 174 kts 48°
2026-05-03 22:02 37.75891 23.76284 3157 ft 169 kts 35°
2026-05-03 22:02 37.76800 23.77184 3079 ft 162 kts 33°
2026-05-03 22:03 37.77666 23.78017 2984 ft 152 kts 33°
2026-05-03 22:03 37.78498 23.78814 2875 ft 148 kts 32°
2026-05-03 22:03 37.79320 23.79599 2771 ft 149 kts 32°
2026-05-03 22:03 37.80144 23.80387 2660 ft 146 kts 32°
2026-05-03 22:04 37.80933 23.81144 2538 ft 139 kts 32°
2026-05-03 22:04 37.81692 23.81870 2467 ft 133 kts 33°
2026-05-03 22:04 37.82410 23.82559 2374 ft 125 kts 31°
2026-05-03 22:04 37.83087 23.83206 2266 ft 121 kts 31°
2026-05-03 22:05 37.83770 23.83858 2160 ft 124 kts 31°
2026-05-03 22:05 37.84465 23.84522 2074 ft 127 kts 32°
2026-05-03 22:05 37.85170 23.85196 1940 ft 126 kts 31°
2026-05-03 22:05 37.85879 23.85872 1892 ft 129 kts 32°
2026-05-03 22:06 37.86601 23.86564 1741 ft 131 kts 33°
2026-05-03 22:06 37.87323 23.87257 1569 ft 130 kts 31°
2026-05-03 22:06 37.88036 23.87938 1393 ft 126 kts 32°
2026-05-03 22:06 37.88738 23.88610 1211 ft 129 kts 32°
2026-05-03 22:07 37.89474 23.89314 1027 ft 135 kts 31°
2026-05-03 22:07 37.90220 23.90025 820 ft 136 kts 32°
2026-05-03 22:07 37.90989 23.90761 629 ft 139 kts 32°
2026-05-03 22:07 37.91746 23.91495 507 ft 139 kts 35°
2026-05-03 22:08 37.92517 23.92245 289 ft 136 kts 33°
2026-05-03 22:08 37.93199 23.92880 278 ft 102 kts 39°
2026-05-03 22:08 37.93658 23.93306 285 ft 68 kts 37°
2026-05-03 22:08 37.93925 23.93573 283 ft 37 kts 37°
2026-05-03 22:09 37.94058 23.93700 284 ft 35 kts 37°
2026-05-03 22:09 37.94216 23.93907 288 ft 31 kts 58°
2026-05-03 22:09 37.94265 23.94029 288 ft 0 kts 66°
2026-05-03 22:10 37.94312 23.94170 289 ft 29 kts 67°
2026-05-03 22:10 37.94450 23.94349 293 ft 28 kts 36°
2026-05-03 22:10 37.94603 23.94494 293 ft 27 kts 36°
2026-05-03 22:10 37.94676 23.94642 293 ft 21 kts 120°
2026-05-03 22:11 37.94599 23.94786 290 ft 20 kts 137°